Theta_e
311 319 325 325 324 323 322 321 322 319 319 317 313 311 309 307 306 303 302 296 296 294
311 312 316 321 321 322 322 319 318 316 315 313 311 309 307 306 303 301 297 296 295 293
311 312 314 317 316 317 317 315 313 311 310 307 306 305 305 303 300 296 293 293 291 290
309 309 310 311 311 311 310 309 308 306 305 304 303 301 300 297 295 292 291 291 290 287
308 307 306 306 306 305 304 304 304 302 301 301 300 297 294 293 292 291 290 290 288 288
305 305 305 304 302 302 301 300 301 299 297 295 294 293 292 291 290 290 290 290 289 287
302 303 302 300 299 299 298 297 295 294 293 292 292 291 291 291 290 289 288 288 288 287
295 296 296 296 295 295 294 294 293 292 292 292 292 292 291 290 288 287 286 286 286 286
292 292 292 292 292 292 293 293 293 291 291 291 293 294 293 290 288 287 286 285 285 285
291 290 291 291 290 290 290 291 291 291 291 291 292 294 292 291 287 285 285 284 283 284
290 290 290 289 288 289 289 288 288 289 290 290 292 293 292 289 285 284 283 283 283 283
289 288 288 286 286 287 287 286 285 286 285 286 287 290 288 284 283 282 282 282 282 283
288 287 285 286 285 285 286 285 286 285 286 289 287 288 287 284 282 281 281 282 282 283
288 287 286 285 285 285 284 285 284 283 283 284 285 288 288 286 282 282 282 282 281 282
Wind_Speed
8 7 9 10 9 8 9 9 11 13 14 15 15 14 12 9 9 9 8 8 6 3
7 8 9 11 8 8 9 7 10 12 12 11 12 13 13 9 10 9 8 7 7 5
7 7 8 7 9 8 7 7 8 10 11 11 11 11 12 9 10 9 7 7 8 7
7 7 6 5 4 5 5 7 9 10 10 12 13 12 11 9 10 10 8 9 10 8
5 5 5 4 3 3 4 5 7 9 9 9 10 10 12 12 11 12 12 9 11 10
5 5 4 3 1 2 5 6 6 8 9 9 8 10 11 13 13 12 12 10 10 9
7 4 5 5 6 4 6 9 9 9 10 11 11 12 13 15 14 13 11 10 10 9
9 9 10 8 9 7 9 9 10 11 11 10 11 9 13 14 13 13 11 8 8 7
10 9 8 8 9 9 9 9 10 11 11 11 10 22 22 15 12 11 9 8 6 5
8 8 8 8 8 8 9 10 12 12 13 13 11 22 21 19 9 9 7 7 6 5
8 9 9 9 8 8 8 10 11 11 12 11 10 19 20 18 9 7 7 6 6 5
8 9 9 9 8 8 9 10 10 9 10 11 10 18 16 11 7 7 6 6 5 4
8 8 8 8 8 7 8 10 8 10 8 11 9 11 11 8 6 6 5 4 3 3
8 9 7 8 7 6 8 9 9 9 7 5 4 7 11 9 4 4 3 2 1 1
Wind_Direction
263 248 238 230 223 221 217 217 220 217 207 202 194 189 192 193 190 182 183 162 167 170
295 271 256 250 235 234 228 216 199 194 203 208 195 193 185 185 181 169 157 151 143 129
303 285 269 261 249 235 224 201 187 189 185 177 176 175 180 173 170 157 137 132 128 116
345 333 321 300 285 247 204 188 178 178 178 177 171 163 159 154 146 128 127 120 120 89
347 335 331 317 287 204 178 180 173 160 161 168 170 155 146 144 139 128 121 123 103 106
356 332 327 352 63 159 137 137 147 139 137 134 132 129 123 120 113 111 111 107 105 111
2 7 43 67 81 93 113 110 109 104 107 111 112 114 115 111 108 102 94 98 100 104
38 35 56 66 72 78 77 90 98 101 98 103 108 114 110 104 104 104 104 101 109 108
42 53 57 57 72 76 83 95 93 89 94 96 98 110 109 110 115 110 120 115 105 103
48 58 58 63 75 88 92 96 94 91 95 86 104 111 109 107 99 101 104 107 123 132
51 56 61 70 71 75 82 84 88 88 87 103 103 105 102 100 94 101 116 131 126 143
54 65 69 68 65 70 76 75 75 78 83 87 91 96 98 100 104 109 120 125 141 162
63 64 61 64 63 67 76 77 80 76 68 84 90 102 113 127 117 124 124 123 113 2
63 69 64 71 64 72 77 82 73 76 75 82 135 165 137 115 101 117 131 104 106 319